STARLINK-6090 (56095 NORAD) Tracking and Keplerian Element Data

This shows tracking and keplerian element data for the satellite.

Feedback or suggestion? Click here.




ElementValue
Catalog56095
NameSTARLINK-6090
Epoch Orbit652
Epoch Day127.25001157
Epoch Year2023
RAAN38.0336
Inclination43.0012
Eccentricity0.0001433
Argument of Perigee274.2303
Mean Anonmoly10.5083
Mean Motion15.2712812
Decay Rate-0.0091197
L11 56095U 23046C 23127.25001157 -.00911970 00000+0 -36204-1 0 9990
L22 56095 43.0012 38.0336 0001433 274.2303 10.5083 15.27128120 6521



Live tracking and technical data element details for STARLINK-6090 (NORAD 56095). STARLINK-6090 can be tracked NOW for your location showing map with azimuth and elevation plus other details from your city location.







IsCatalogInMostPopularTable: catalog: 56095, numindb: 1
Update: records affected: 1



GetName: 56095 STARLINK-6090

Hit Count: updated at: Mon, 05 Jun 2023 00:39:35 GMT